Wind_Speed
21 22 22 23 22 22 22 22 22 24 28 30 33 33 36 37 39 35 33 38 45 56 60 57 54 52 52 52 52 51 55 58 54 47 39 28 35 32 39 33 33 30 40 45 49
19 21 23 25 26 24 23 23 22 24 26 27 28 28 31 31 31 25 27 27 36 44 48 49 48 46 46 47 49 51 54 54 50 49 40 25 35 40 41 50 54 45 52 46 44
19 20 21 22 23 25 23 23 22 22 24 25 25 25 26 24 23 18 18 21 30 38 41 42 42 41 40 41 45 48 51 46 46 48 46 41 29 43 39 50 47 44 46 48 46
24 23 22 24 25 22 21 22 21 22 22 22 21 21 20 20 20 14 15 21 29 38 38 36 35 35 34 36 38 42 43 43 43 42 41 51 46 45 48 49 47 48 50 52 56
23 20 23 23 22 17 20 20 21 21 20 19 18 17 16 15 14 12 14 21 29 38 40 35 32 30 29 31 33 37 39 42 42 47 38 52 55 62 58 49 52 51 54 56 55
25 24 22 22 20 16 17 20 20 21 19 17 15 14 13 9 10 9 13 21 31 36 37 37 33 30 29 30 31 32 36 40 43 47 51 49 49 51 45 47 49 46 53 51 54
25 24 26 23 20 20 20 19 19 20 20 16 14 12 12 8 3 6 11 23 32 33 35 36 36 34 32 32 31 33 34 39 41 44 47 48 47 48 46 49 47 47 46 47 52
28 28 26 26 27 24 23 21 19 18 19 16 13 11 10 8 5 7 12 23 30 33 35 37 37 38 38 32 34 36 37 34 35 39 39 41 43 43 44 47 48 49 48 50 52
32 29 29 29 28 26 24 23 21 18 18 18 13 10 9 8 5 11 14 18 24 29 32 34 33 32 31 31 34 32 33 33 32 30 34 39 40 38 35 41 45 51 47 43 49
33 30 32 33 27 28 28 25 21 20 17 19 17 11 9 9 6 7 15 18 19 21 25 27 29 31 30 30 30 29 29 26 24 18 29 36 35 36 35 42 45 47 39 40 44
30 32 31 31 30 29 28 24 21 20 17 18 21 14 10 8 10 9 10 19 25 23 24 25 27 28 25 24 22 19 12 20 15 19 27 36 34 37 33 41 44 44 40 38 40
26 23 22 18 20 21 20 20 19 18 20 16 17 20 12 11 11 13 13 13 17 23 27 28 26 25 26 26 26 28 29 29 28 25 32 32 38 34 33 37 42 42 39 37 38
14 13 13 14 15 13 12 12 17 15 17 13 15 16 22 16 13 14 16 17 16 18 21 22 13 20 26 23 26 34 38 34 35 32 33 36 38 34 31 35 39 41 40 41 38
11 12 12 11 10 8 8 9 12 15 14 13 13 14 17 25 17 16 15 16 19 20 20 21 20 17 27 31 30 28 25 26 30 28 28 28 32 29 28 35 38 39 39 40 39
8 9 9 10 8 6 7 9 10 11 11 10 12 13 10 13 20 23 19 18 19 21 23 20 20 28 27 24 28 27 23 20 23 34 36 34 33 30 27 24 27 33 34 38 37
9 8 9 8 9 8 8 6 8 6 9 14 18 16 13 14 13 13 27 25 22 24 26 25 24 28 25 27 26 26 26 28 29 31 34 30 31 31 26 20 23 26 28 37 32
13 12 9 9 10 9 8 7 5 2 8 11 17 14 8 10 11 14 11 14 25 31 27 24 27 27 25 25 25 27 29 27 29 30 32 21 24 23 18 20 23 28 33 43 40
15 15 13 10 10 11 9 8 2 6 12 10 13 13 11 9 14 14 19 20 16 16 19 26 30 23 27 29 26 27 27 26 24 21 21 20 26 21 27 28 32 39 47 46 46
17 16 16 14 10 8 7 6 6 8 8 8 8 8 4 13 18 14 20 19 18 24 24 21 22 25 29 27 28 31 43 38 37 37 41 36 32 26 20 24 31 34 40 48 54
17 18 19 18 12 8 7 11 9 9 9 10 9 8 13 18 22 23 24 22 24 33 37 29 36 31 29 31 32 34 27 29 36 44 46 45 39 38 35 39 36 36 41 53 56
13 13 14 12 13 10 10 11 11 10 12 12 14 13 12 17 23 27 29 29 29 33 37 35 41 40 37 37 36 34 35 36 37 40 39 38 34 37 37 48 47 46 46 52 56
14 12 13 12 14 13 13 11 11 14 15 16 15 16 17 17 20 22 27 32 35 37 38 41 42 44 40 40 43 41 41 41 42 41 42 41 44 46 43 40 43 49 48 50 56
16 15 16 16 14 8 10 18 15 16 18 18 20 19 19 20 23 24 24 35 34 38 39 40 41 37 36 35 36 41 40 40 43 47 49 49 46 45 46 48 50 50 47 48 54
17 20 19 18 17 16 18 20 19 17 19 19 21 22 21 23 25 28 26 35 36 39 37 37 38 40 37 32 30 31 36 38 42 45 50 46 43 40 47 44 48 49 48 52 57
18 14 15 18 16 18 18 20 21 20 21 20 21 21 24 25 26 28 33 29 32 36 34 35 38 37 38 37 35 36 41 37 41 50 43 40 40 40 41 44 45 51 51 55 60
21 19 17 21 20 18 18 22 21 23 21 24 22 24 26 27 27 29 30 30 30 32 33 32 32 34 34 35 35 36 37 39 45 44 48 48 46 47 47 50 52 54 56 58 58
24 20 23 22 22 21 21 20 22 22 23 23 24 25 26 27 29 31 29 29 30 32 31 29 29 29 29 27 27 30 25 30 33 36 38 41 41 40 43 44 44 46 48 46 48
Wind_Direction
300 301 298 297 293 290 290 288 286 289 295 296 301 306 310 307 302 284 273 245 230 222 216 217 218 218 220 220 219 220 223 226 225 222 217 230 236 235 220 211 219 223 230 242 252
305 307 305 299 294 288 285 284 284 289 298 299 306 309 311 306 302 287 271 237 225 217 212 208 212 214 217 218 220 221 223 226 225 223 215 209 251 243 236 232 235 231 239 245 261
313 313 311 312 303 283 283 283 282 287 299 302 308 313 313 310 300 294 259 218 210 200 200 204 205 209 212 214 218 221 224 224 223 222 219 212 241 252 241 239 237 234 247 251 254
312 310 310 311 313 284 281 284 282 287 299 306 309 314 316 315 301 287 255 209 197 188 187 196 207 208 211 212 215 221 224 224 219 220 217 220 221 245 242 245 245 247 248 250 252
310 307 316 315 321 294 292 290 286 286 297 307 308 314 316 322 315 297 245 205 191 187 177 187 197 209 210 212 213 220 222 224 223 221 223 226 223 238 250 250 246 247 254 260 264
309 308 317 316 318 313 301 298 288 284 293 303 303 305 307 306 310 287 240 199 188 186 179 182 189 201 206 209 213 219 223 224 223 226 233 238 239 241 243 247 247 244 249 250 254
304 304 308 311 312 314 309 300 290 283 287 296 298 297 303 296 298 268 226 198 187 182 185 185 190 197 204 208 210 219 224 224 227 230 233 239 240 244 244 246 249 246 245 251 251
303 300 297 301 299 300 304 301 290 279 277 286 290 288 290 288 204 165 212 201 191 186 190 192 197 201 202 211 218 221 226 227 229 235 238 240 242 244 247 248 250 249 246 245 250
296 294 289 289 293 290 297 296 291 278 267 275 281 275 275 272 253 185 178 204 201 195 199 201 204 210 213 217 223 225 229 232 234 243 246 241 242 245 253 256 248 251 250 252 251
295 293 287 287 288 283 288 288 289 282 266 255 264 266 257 260 246 216 197 186 196 205 208 208 212 214 215 219 224 228 233 241 241 251 239 251 251 247 249 252 256 256 255 255 254
297 298 295 294 291 278 275 278 280 277 258 256 253 253 256 235 237 213 211 206 190 195 204 210 217 219 221 226 225 199 226 237 262 238 255 262 250 252 246 256 257 260 259 257 259
309 311 311 310 294 275 263 269 275 278 270 246 253 237 243 241 227 227 207 210 214 203 202 208 212 217 219 225 226 216 210 224 214 204 225 243 258 252 250 251 260 267 266 259 258
327 330 335 331 324 289 270 272 275 288 297 277 246 257 230 233 233 224 220 211 207 211 207 212 199 237 230 229 228 227 224 231 230 226 237 248 253 258 255 255 257 262 266 268 265
327 338 343 334 340 316 296 277 287 296 296 308 286 264 260 230 229 230 224 221 219 216 217 212 190 212 229 227 228 238 236 237 236 235 242 250 257 258 264 251 254 257 259 262 264
314 332 348 351 4 355 341 304 288 292 303 291 294 305 303 293 229 229 224 227 225 221 221 216 230 227 234 231 234 239 234 238 251 246 246 245 253 252 230 244 262 268 260 258 258
300 312 324 340 358 358 6 345 309 313 320 305 296 294 292 292 292 246 233 229 229 233 233 219 207 222 232 236 241 236 234 230 239 249 250 252 257 260 259 258 279 281 266 259 254
291 300 311 327 342 346 353 346 319 264 290 269 289 310 301 292 297 303 294 266 248 240 241 238 239 247 250 247 246 245 243 245 252 255 263 278 282 290 288 275 244 245 244 258 258
284 287 295 309 325 331 335 326 341 300 227 258 253 259 282 272 290 292 308 306 287 284 257 248 242 241 258 256 247 248 251 251 253 254 265 254 263 270 238 231 233 231 253 276 273
279 281 285 293 304 311 309 290 258 282 286 294 285 270 304 271 251 233 270 278 258 272 272 256 253 239 222 232 251 252 249 254 249 245 239 229 223 247 258 267 260 256 257 259 269
287 280 276 281 284 286 283 284 274 285 292 297 288 276 204 235 263 261 271 256 267 255 259 267 268 260 260 249 243 246 249 250 248 252 253 252 244 243 246 252 236 246 252 262 264
295 290 284 278 276 278 275 281 285 293 292 294 295 292 274 238 253 258 259 262 261 258 260 263 264 260 258 261 258 254 255 254 260 252 255 257 250 239 240 241 247 250 258 265 270
297 296 296 289 282 279 282 265 276 285 287 289 288 289 291 288 279 273 260 271 272 276 268 264 266 268 266 262 263 258 259 253 254 260 257 259 256 247 247 258 249 253 254 264 267
292 296 301 299 287 242 215 279 274 280 282 283 286 287 292 295 291 284 276 282 280 275 274 277 276 272 268 263 262 261 258 257 252 254 257 259 259 260 259 259 256 256 257 259 258
291 294 288 288 287 275 269 274 279 276 281 284 285 289 296 298 293 295 282 282 283 278 279 275 271 270 265 261 257 241 248 251 253 257 261 265 265 256 261 260 255 258 257 257 261
291 295 300 301 283 278 283 281 281 285 285 283 285 290 296 297 291 292 292 279 282 281 277 275 272 270 269 266 257 254 246 247 241 241 258 262 259 262 258 257 250 253 253 256 264
281 292 296 319 303 288 284 290 286 285 281 287 291 298 300 298 298 296 291 282 281 287 278 275 272 270 266 268 263 258 254 253 253 252 263 264 265 265 266 260 260 265 266 267 272
272 284 292 304 315 295 287 292 293 289 286 286 293 299 298 300 298 297 289 283 280 281 278 270 274 270 270 263 256 253 258 258 259 259 261 261 266 266 264 264 263 265 265 271 275
Height
5786 5784 5782 5779 5777 5775 5773 5771 5770 5767 5764 5760 5755 5750 5745 5739 5733 5726 5722 5719 5723 5735 5744 5757 5768 5776 5784 5793 5800 5806 5809 5816 5827 5837 5845 5849 5848 5848 5850 5851 5858 5864 5855 5855 5859
5782 5780 5777 5775 5773 5771 5768 5766 5764 5762 5759 5755 5750 5745 5739 5732 5725 5719 5714 5714 5718 5728 5739 5750 5761 5770 5778 5786 5793 5797 5801 5812 5824 5831 5836 5842 5838 5837 5845 5847 5851 5853 5851 5856 5857
5779 5776 5773 5770 5767 5765 5763 5761 5759 5756 5753 5749 5745 5739 5733 5726 5721 5717 5711 5711 5716 5723 5735 5747 5755 5763 5771 5779 5786 5792 5797 5809 5816 5822 5828 5828 5830 5828 5835 5838 5842 5849 5847 5849 5852
5776 5772 5769 5765 5761 5759 5758 5756 5753 5751 5748 5744 5740 5735 5729 5723 5719 5715 5712 5712 5716 5720 5732 5744 5756 5762 5768 5775 5782 5787 5795 5800 5807 5813 5818 5819 5825 5818 5827 5832 5838 5838 5839 5838 5838
5771 5768 5765 5761 5757 5754 5753 5751 5749 5746 5743 5739 5736 5731 5726 5722 5718 5715 5714 5714 5717 5725 5729 5742 5753 5762 5767 5773 5778 5782 5788 5793 5800 5804 5806 5805 5813 5815 5820 5827 5827 5831 5834 5834 5838
5768 5764 5760 5757 5754 5751 5748 5746 5744 5742 5739 5736 5732 5729 5725 5721 5718 5717 5716 5716 5720 5727 5729 5738 5748 5758 5763 5769 5774 5778 5782 5787 5792 5796 5796 5802 5807 5808 5817 5817 5820 5825 5824 5832 5832
5762 5759 5756 5753 5750 5747 5744 5741 5739 5737 5735 5733 5730 5727 5724 5720 5717 5717 5717 5719 5722 5727 5732 5736 5744 5752 5758 5763 5769 5773 5776 5780 5786 5789 5791 5795 5799 5800 5807 5808 5813 5815 5820 5824 5823
5757 5753 5751 5748 5745 5743 5740 5737 5734 5732 5731 5729 5727 5725 5723 5720 5717 5717 5720 5722 5724 5727 5732 5735 5740 5746 5751 5760 5763 5767 5771 5775 5780 5782 5786 5789 5793 5795 5797 5799 5803 5807 5811 5814 5815
5748 5745 5742 5741 5738 5736 5735 5732 5730 5728 5726 5725 5724 5723 5722 5720 5719 5717 5718 5723 5725 5728 5731 5736 5741 5747 5752 5755 5759 5764 5768 5771 5776 5778 5780 5782 5785 5789 5791 5791 5795 5793 5801 5806 5806
5741 5738 5734 5731 5731 5729 5728 5727 5725 5723 5722 5722 5721 5722 5720 5720 5719 5719 5719 5720 5724 5728 5733 5736 5740 5744 5747 5751 5756 5761 5764 5769 5771 5776 5774 5775 5779 5782 5784 5783 5785 5787 5793 5795 5797
5732 5729 5727 5724 5723 5721 5721 5721 5721 5719 5716 5718 5718 5717 5717 5717 5718 5718 5719 5720 5721 5725 5730 5733 5737 5740 5746 5749 5755 5758 5766 5767 5772 5773 5773 5769 5771 5773 5778 5776 5777 5780 5784 5787 5788
5728 5723 5720 5717 5714 5712 5713 5715 5715 5715 5712 5711 5713 5713 5714 5715 5715 5716 5717 5720 5722 5723 5725 5729 5733 5738 5742 5744 5749 5752 5754 5758 5761 5764 5767 5765 5762 5767 5771 5772 5770 5771 5773 5777 5780
5722 5721 5718 5714 5711 5709 5710 5711 5711 5710 5709 5707 5708 5709 5710 5711 5712 5714 5715 5716 5719 5721 5723 5726 5733 5735 5737 5740 5743 5744 5746 5749 5753 5756 5757 5756 5757 5760 5764 5765 5765 5765 5766 5766 5770
5722 5718 5716 5712 5710 5708 5708 5708 5708 5708 5707 5707 5706 5705 5705 5706 5709 5710 5713 5715 5716 5719 5721 5723 5728 5730 5731 5733 5736 5738 5742 5744 5746 5748 5749 5751 5750 5752 5755 5756 5757 5758 5758 5759 5760
5717 5716 5713 5711 5709 5708 5707 5706 5705 5706 5706 5705 5704 5704 5703 5703 5704 5707 5709 5710 5712 5714 5717 5721 5724 5725 5725 5729 5731 5733 5736 5739 5740 5738 5740 5743 5742 5747 5749 5750 5750 5749 5750 5751 5751
5715 5712 5711 5710 5707 5707 5704 5704 5704 5705 5704 5702 5701 5701 5701 5701 5700 5701 5703 5705 5707 5709 5710 5713 5715 5717 5720 5721 5723 5727 5728 5729 5730 5732 5731 5736 5737 5739 5742 5745 5746 5745 5742 5741 5744
5714 5710 5707 5706 5705 5704 5702 5702 5703 5703 5703 5703 5699 5697 5698 5698 5699 5697 5699 5701 5703 5705 5707 5710 5711 5713 5715 5717 5719 5721 5722 5723 5725 5725 5725 5733 5732 5734 5737 5738 5741 5738 5734 5732 5733
5710 5708 5706 5702 5701 5701 5700 5701 5700 5701 5700 5699 5699 5698 5699 5698 5697 5697 5696 5696 5697 5699 5699 5702 5705 5710 5710 5710 5714 5714 5716 5718 5719 5722 5725 5730 5729 5730 5731 5731 5729 5728 5724 5723 5723
5704 5704 5703 5700 5698 5697 5698 5698 5696 5695 5696 5695 5695 5695 5696 5697 5697 5696 5697 5698 5699 5694 5694 5695 5698 5701 5700 5702 5705 5708 5705 5711 5708 5708 5708 5715 5719 5721 5723 5720 5721 5720 5718 5714 5710
5699 5698 5698 5697 5695 5693 5693 5693 5692 5691 5691 5690 5690 5691 5692 5692 5693 5691 5689 5690 5692 5688 5688 5693 5688 5693 5695 5696 5697 5698 5702 5700 5700 5699 5699 5705 5711 5714 5711 5707 5707 5708 5707 5699 5698
5694 5693 5692 5691 5692 5690 5689 5689 5688 5687 5687 5686 5685 5685 5687 5686 5685 5684 5684 5683 5684 5682 5681 5684 5681 5684 5688 5688 5689 5692 5691 5692 5693 5692 5691 5694 5699 5695 5700 5697 5698 5699 5697 5692 5690
5690 5689 5688 5686 5688 5685 5684 5683 5683 5681 5681 5680 5679 5678 5678 5679 5679 5678 5677 5673 5673 5672 5673 5671 5672 5672 5676 5678 5678 5681 5682 5684 5682 5684 5684 5684 5685 5686 5689 5687 5689 5686 5686 5683 5678
5685 5684 5683 5682 5682 5682 5676 5678 5676 5675 5674 5674 5673 5672 5671 5671 5670 5670 5669 5661 5663 5662 5660 5660 5660 5660 5662 5668 5669 5667 5669 5671 5671 5672 5671 5673 5675 5675 5677 5675 5675 5677 5675 5671 5668
5681 5679 5679 5677 5676 5675 5673 5671 5670 5669 5667 5667 5666 5665 5664 5663 5660 5659 5659 5654 5652 5650 5651 5651 5652 5650 5652 5657 5658 5658 5655 5657 5660 5658 5659 5662 5665 5665 5658 5662 5663 5661 5660 5658 5657
5677 5675 5672 5671 5671 5669 5668 5665 5663 5662 5661 5660 5659 5658 5656 5655 5652 5649 5645 5646 5642 5639 5641 5640 5640 5640 5640 5642 5646 5648 5649 5648 5649 5650 5648 5654 5652 5652 5651 5648 5648 5648 5647 5646 5644
5671 5669 5668 5667 5663 5662 5660 5658 5658 5656 5655 5652 5652 5650 5647 5645 5643 5640 5637 5635 5634 5631 5629 5630 5630 5629 5631 5631 5633 5634 5637 5638 5640 5641 5640 5639 5640 5641 5640 5638 5638 5637 5637 5634 5631
5663 5662 5661 5661 5658 5656 5653 5651 5650 5650 5648 5646 5644 5642 5639 5637 5634 5631 5628 5627 5625 5623 5621 5621 5621 5621 5622 5622 5622 5625 5629 5628 5629 5629 5629 5628 5629 5626 5625 5626 5626 5625 5624 5622 5619